Wind_Speed
18 20 21 21 20 20 21 21 21 21 22 22 23 23 23 23 23 23 23 22 21 21 21 21 21 21 21 21 20 20 20 21 21 21 21 21 21 21 21 21 22 22 22 22 22 22 22 22 21 21 20 19 18 18 17 17 18 19 19 18 17 17 17 17 18 17 17 17 17 16 15 15 16 19 21 23 23 23 23 23 24 24 23 22 21 18
18 19 20 20 20 20 21 21 21 22 22 23 23 23 22 22 22 21 21 20 20 21 21 22 22 22 22 21 21 20 21 21 22 22 22 22 22 22 23 23 23 23 23 22 22 22 21 21 20 19 19 18 18 17 17 17 18 18 16 15 14 15 15 16 17 17 18 18 17 17 16 16 18 21 23 24 24 23 23 23 23 23 22 21 19 16
15 17 19 19 19 20 20 21 22 22 23 23 23 23 22 21 20 20 20 20 21 22 23 23 23 23 22 22 21 21 21 21 22 22 23 23 24 24 24 25 24 24 23 22 21 21 20 19 18 18 18 18 17 17 17 18 18 17 15 14 14 14 14 15 16 16 17 18 18 17 17 18 21 23 25 24 23 23 22 22 22 21 20 19 17 15
14 15 17 18 19 20 21 21 22 23 24 24 23 22 21 20 19 20 20 20 21 22 23 24 24 23 23 22 21 21 21 21 21 22 22 23 24 25 25 25 25 24 23 22 21 20 19 18 17 17 17 18 18 18 18 18 18 17 15 14 14 14 14 14 15 16 17 18 18 18 19 20 23 25 25 24 23 22 22 22 21 20 20 19 18 17
14 14 16 17 19 21 22 23 23 24 25 25 24 23 22 21 20 20 21 21 22 23 23 24 24 24 24 23 22 22 21 21 21 21 22 22 23 23 24 24 24 23 23 22 20 20 19 18 17 17 18 18 19 19 19 19 18 17 15 14 14 14 14 14 15 16 17 18 18 18 20 22 24 26 26 24 22 22 22 22 21 21 21 20 19 17
17 16 16 17 18 21 23 24 24 25 25 26 26 25 24 23 23 22 23 23 24 24 24 25 25 25 25 24 24 23 22 22 22 22 21 21 21 21 21 21 22 22 22 21 20 20 19 18 18 18 18 19 20 20 20 19 18 17 15 14 14 14 14 14 15 16 17 18 19 20 21 23 26 27 26 24 23 23 23 23 23 23 22 20 18 16
19 18 18 18 20 22 23 24 25 25 26 26 27 27 27 27 26 26 26 26 26 27 27 26 26 26 26 26 25 24 23 23 23 23 22 21 21 20 20 20 21 21 21 21 21 20 20 19 19 19 19 20 21 21 21 20 18 17 15 14 14 14 14 15 15 16 18 19 20 22 23 25 27 27 27 26 25 25 25 24 24 23 21 19 16 14
19 19 19 19 21 22 23 24 25 26 26 26 26 27 28 28 29 29 29 29 29 29 29 28 28 28 27 27 26 25 24 24 24 24 24 23 22 21 21 21 21 21 22 22 21 21 21 21 20 20 21 21 22 22 22 20 19 17 16 15 15 15 15 16 17 17 18 20 22 24 26 28 29 29 28 28 27 27 26 25 23 21 19 16 14 12
19 19 19 19 19 19 20 23 25 26 26 26 26 25 24 26 27 28 29 29 29 30 29 28 28 29 29 28 26 25 25 25 25 25 25 25 24 23 22 21 21 21 22 22 22 22 22 22 22 22 22 23 23 23 22 21 20 19 17 17 17 17 18 18 18 18 19 21 24 26 28 29 30 30 29 29 28 27 25 23 20 18 16 14 13 12
21 20 20 20 20 20 19 20 22 25 25 26 26 25 24 22 22 23 24 26 28 29 29 28 28 28 28 28 27 26 25 25 25 25 26 26 25 24 23 22 21 21 22 23 23 23 23 23 23 23 23 24 24 24 23 22 21 20 19 19 19 19 20 20 19 19 19 21 23 26 28 29 29 29 28 27 26 24 22 19 17 15 13 12 12 12
21 21 20 20 20 21 21 21 22 23 24 25 26 26 26 24 21 18 17 19 23 25 27 28 27 27 27 27 27 26 25 25 25 25 26 26 25 25 24 23 22 21 22 23 25 25 24 24 24 24 24 25 25 25 25 24 22 21 21 21 22 22 22 21 21 20 20 21 22 23 25 25 26 26 25 24 23 21 19 17 15 13 12 12 12 13
20 19 18 19 20 21 22 22 23 23 22 21 20 20 22 23 23 20 17 16 18 20 22 24 26 26 25 25 25 25 25 25 25 25 25 25 25 25 24 23 22 21 22 24 25 26 26 25 25 25 26 26 26 26 26 25 24 23 23 23 24 24 24 23 22 22 22 22 22 23 23 24 24 24 23 23 22 20 19 17 15 14 13 13 14 14
20 18 16 17 18 18 18 19 20 20 19 18 16 16 17 19 21 21 19 19 19 19 19 19 21 24 25 24 24 23 23 24 24 25 25 25 26 25 24 23 23 22 23 24 26 27 27 27 27 26 27 28 28 28 27 26 25 25 25 25 25 25 26 25 25 24 24 24 24 24 24 24 24 24 24 23 22 21 19 18 16 15 14 14 15 16
21 20 19 18 17 16 16 16 16 16 18 19 19 19 18 17 18 19 20 20 21 20 19 18 18 21 23 23 23 23 22 23 23 24 25 26 26 26 24 24 23 23 24 24 26 28 29 29 28 28 29 29 29 29 28 27 26 26 26 26 26 26 26 27 26 26 26 26 26 26 26 26 26 26 25 24 23 22 20 19 17 16 15 16 16 17
20 19 18 16 17 18 16 15 16 18 20 21 22 22 20 19 17 17 18 18 19 19 18 17 18 19 21 23 23 22 22 22 23 23 24 27 28 27 25 24 24 24 24 25 26 28 29 30 30 30 31 31 31 30 30 29 28 27 27 27 27 26 26 27 27 28 28 28 28 28 27 27 27 27 27 26 25 23 22 20 18 17 17 17 17 17
21 19 17 17 19 21 20 17 16 18 20 21 22 21 20 20 19 18 17 17 16 15 13 13 13 15 17 20 21 21 21 22 23 23 23 26 27 28 26 24 24 24 25 25 26 28 29 30 31 31 33 33 33 32 31 30 29 28 28 28 27 26 26 27 28 28 29 29 29 29 28 28 28 28 28 27 26 24 23 21 20 19 18 18 18 17
20 20 19 19 21 23 23 21 20 20 20 20 21 22 22 21 20 19 18 17 15 13 12 11 7 5 8 14 16 17 19 21 22 22 22 24 26 28 27 25 24 24 25 26 26 27 29 30 31 33 34 35 34 33 32 31 30 29 29 28 27 26 26 26 27 28 29 29 29 29 29 29 29 29 28 27 26 24 23 21 20 20 19 19 18 17
17 18 18 19 21 24 25 23 23 23 22 21 21 22 24 24 23 21 20 18 16 14 13 12 9 5 4 8 10 11 14 18 20 21 20 21 24 26 27 26 25 25 26 26 27 28 29 30 32 33 35 36 35 34 33 32 31 31 30 29 28 27 26 26 27 28 29 29 29 29 29 28 28 28 27 26 25 23 22 21 21 20 19 19 18 16
17 17 17 18 20 23 24 24 23 22 22 21 21 21 21 22 23 22 21 20 19 17 15 13 13 13 12 14 14 12 11 13 17 19 18 19 21 24 26 25 25 25 26 27 28 29 30 31 32 34 36 36 36 35 34 33 32 32 31 30 28 27 27 26 27 28 28 29 29 29 29 28 27 27 26 25 24 23 22 21 21 20 19 18 17 16
22 21 21 19 18 19 19 21 22 22 22 22 22 21 20 21 22 22 22 21 21 20 19 17 16 16 17 18 17 15 12 11 14 17 17 17 19 21 24 24 24 25 26 27 28 29 30 31 33 35 36 37 36 35 35 34 33 32 32 30 29 28 27 27 27 28 28 29 29 29 28 28 27 26 26 25 24 23 22 21 20 19 18 18 17 16
26 26 27 24 20 18 17 19 20 22 23 23 22 21 21 20 21 21 21 20 21 21 20 18 18 19 19 18 17 17 16 15 15 16 15 15 17 20 22 23 24 25 26 27 28 30 31 33 34 36 37 37 37 36 35 35 34 33 32 31 29 28 27 27 27 28 28 29 29 29 28 28 27 26 25 25 23 22 21 20 19 18 18 17 16 15
29 29 29 27 25 25 25 25 25 25 26 25 24 23 22 20 20 20 21 21 21 20 20 21 22 23 23 22 21 21 21 19 18 17 13 12 14 17 21 23 25 26 25 26 28 30 32 34 36 37 37 38 37 37 36 36 35 34 33 31 29 28 27 27 28 28 29 29 28 28 28 27 26 25 25 23 22 21 19 18 18 17 16 15 15 14
30 29 28 27 27 29 31 33 34 34 33 30 30 29 27 25 23 23 23 23 24 24 25 25 25 25 25 24 24 23 23 22 21 19 15 9 10 15 19 22 25 26 24 25 28 30 33 35 36 38 38 38 38 37 37 36 36 35 33 32 30 28 28 28 29 29 29 28 28 27 26 25 24 23 22 21 20 18 17 17 16 15 15 14 14 14
29 30 31 30 29 29 30 32 35 36 36 34 33 32 31 30 29 29 28 28 28 28 28 27 25 24 24 24 24 24 25 24 23 21 17 13 12 14 17 21 25 25 22 24 27 30 33 35 36 37 38 38 38 38 38 37 37 36 34 32 30 29 29 29 29 29 28 27 26 25 23 22 22 21 20 19 18 17 16 15 15 14 14 14 14 14
29 29 30 31 31 31 32 31 31 30 31 31 31 30 30 30 31 31 31 30 29 28 25 22 19 17 19 21 22 24 25 26 25 22 18 14 12 13 17 21 24 24 20 22 25 30 32 34 35 36 36 36 37 37 38 37 37 36 34 32 31 30 29 29 29 28 26 25 23 22 21 20 19 19 18 17 16 16 15 14 14 14 14 14 15 15
33 32 32 32 33 34 35 35 32 28 28 27 27 27 28 29 29 29 27 26 25 24 21 16 13 13 16 17 18 21 25 26 27 26 22 15 11 11 17 21 24 24 20 20 23 28 31 32 33 34 35 35 35 36 37 37 36 36 34 32 31 30 29 29 28 26 24 23 21 20 19 19 18 18 17 17 16 16 15 15 15 15 15 16 16 17
37 37 37 37 37 37 38 38 37 35 31 29 28 27 27 27 27 25 22 22 22 21 18 11 8 9 12 13 15 19 23 26 28 29 27 21 13 11 16 21 25 24 20 19 22 26 28 29 30 32 33 34 34 34 35 35 35 35 33 32 31 30 29 27 26 24 23 21 20 20 19 19 18 18 18 17 16 16 16 16 16 16 17 18 18 18
38 38 39 39 39 38 38 38 39 39 37 35 33 30 28 27 24 22 20 21 22 21 19 12 7 6 7 10 14 18 23 26 28 30 29 24 15 11 16 22 25 23 19 18 20 23 24 25 27 30 31 32 33 33 33 33 33 33 32 31 30 29 27 26 24 23 22 21 21 20 20 19 19 18 18 17 17 17 17 17 17 18 19 20 20 20
36 37 37 38 37 37 37 37 37 38 38 38 36 34 31 29 27 25 24 24 22 21 18 16 13 10 8 11 14 16 20 24 28 31 31 23 14 11 18 22 24 23 19 16 15 16 16 20 24 27 28 30 31 32 31 31 31 31 30 29 28 27 26 25 24 23 23 22 21 21 20 20 19 19 18 18 17 17 18 18 19 20 21 21 21 21
30 32 32 33 33 33 33 34 34 34 35 37 38 37 35 33 31 30 28 25 24 22 20 18 17 15 12 9 8 9 13 21 27 31 31 23 15 12 18 21 23 23 22 16 9 5 8 15 21 24 26 27 29 30 31 30 30 29 28 27 27 26 26 25 25 24 23 23 22 21 21 20 20 19 19 18 18 18 19 20 21 22 22 22 22 22
28 28 28 29 29 29 30 30 30 30 31 34 36 38 38 37 35 32 30 27 26 25 22 19 18 17 14 7 3 3 5 17 26 31 31 24 17 15 19 20 21 24 26 20 8 1 4 9 16 22 24 26 27 29 30 31 31 30 29 28 27 26 25 25 25 24 23 23 22 22 21 21 20 20 19 19 19 19 20 21 22 22 23 23 23 23
28 28 28 28 28 28 29 28 28 27 29 31 33 36 38 38 36 34 32 31 30 28 25 22 20 19 19 13 9 7 6 17 26 31 32 25 18 16 21 20 21 23 27 25 17 8 5 4 11 19 23 24 26 28 30 31 31 31 30 29 28 26 25 25 24 24 23 22 22 21 21 21 20 20 19 19 19 19 20 21 22 23 23 24 24 24
28 28 27 27 27 28 28 27 27 26 27 29 31 32 34 34 35 35 33 33 33 32 29 25 22 21 21 21 19 16 14 20 26 31 33 27 20 16 20 21 21 23 25 24 20 14 8 8 11 16 20 23 25 27 29 30 31 31 31 31 29 28 26 25 24 24 23 22 22 21 21 21 20 20 20 19 19 19 20 21 22 22 23 24 25 25
29 28 27 27 26 26 26 26 26 26 26 27 29 31 31 31 32 32 32 34 35 35 34 30 26 24 22 20 19 18 18 21 26 30 32 31 24 18 21 22 22 22 22 19 15 11 9 13 15 15 16 20 24 26 29 30 31 31 31 31 31 29 28 26 26 25 24 24 23 22 21 21 21 20 20 20 20 19 19 20 21 22 23 24 25 25
28 28 27 26 26 25 26 26 26 26 26 26 27 29 31 31 30 29 30 32 35 37 38 36 33 30 26 22 18 17 18 22 25 28 31 33 29 23 22 22 23 23 21 18 15 10 9 13 17 17 15 16 19 23 28 30 31 31 31 31 31 30 29 28 28 27 26 25 25 24 23 23 22 21 21 20 20 20 19 20 20 21 22 23 24 25
26 25 26 25 25 25 26 26 26 26 26 26 27 28 30 32 32 30 29 30 34 37 39 39 38 37 34 30 25 22 23 25 27 28 31 34 33 28 23 22 24 25 23 20 17 14 11 12 16 19 17 15 14 18 24 29 32 32 31 31 30 30 30 29 29 28 27 27 26 26 25 25 24 23 22 22 21 20 20 19 19 20 21 21 22 24
26 25 25 25 24 24 26 26 26 26 26 26 26 27 28 31 33 32 30 29 31 35 38 39 39 38 37 35 32 29 28 28 29 29 31 34 35 32 26 23 25 28 26 22 20 17 14 12 14 16 17 16 14 14 19 27 30 31 31 31 31 30 30 29 29 29 29 28 28 27 26 26 25 24 23 22 21 20 19 18 18 18 19 20 21 22
26 26 26 26 25 25 25 26 26 27 27 27 26 26 28 31 33 34 33 30 30 32 35 37 38 38 37 36 34 32 29 29 29 30 32 34 36 35 30 26 27 29 29 27 24 21 17 13 10 9 11 15 16 17 20 25 27 28 29 30 31 31 30 30 29 29 29 29 28 28 27 27 26 25 24 23 22 21 20 19 18 18 18 19 19 20
24 26 26 26 25 25 26 26 27 28 28 29 29 29 31 32 34 36 36 34 32 32 34 35 36 37 37 36 34 32 30 30 30 31 32 34 36 36 33 29 28 29 31 30 28 25 22 18 14 11 10 13 15 17 21 24 26 26 27 28 29 29 30 30 30 30 29 29 29 28 28 27 27 26 26 25 25 24 23 22 21 19 19 19 19 19
24 25 26 26 25 25 26 27 28 29 29 30 31 31 32 32 33 35 37 37 36 35 35 34 35 35 35 35 35 34 33 32 32 32 33 35 36 36 34 31 30 30 31 30 28 26 25 23 20 19 18 17 16 17 20 22 25 26 25 23 22 24 29 30 31 30 30 30 30 30 29 29 28 27 27 27 26 26 25 24 23 21 21 21 20 20
25 26 26 26 26 26 26 27 28 29 29 30 31 31 31 31 32 33 35 36 36 35 35 33 33 34 33 34 34 34 34 34 33 33 34 35 37 37 35 33 31 31 31 30 28 26 26 24 22 20 20 20 20 20 21 23 25 26 26 23 22 24 29 31 31 31 30 30 31 31 30 30 29 28 28 28 27 27 26 25 24 22 21 21 21 22
26 26 27 27 27 27 27 28 28 28 28 28 28 28 29 30 30 31 31 31 32 32 33 32 30 29 28 29 31 32 33 33 34 34 35 36 37 38 36 34 32 32 31 29 27 25 26 25 23 21 21 21 21 20 20 23 26 27 26 25 25 25 26 29 31 31 30 31 31 31 31 30 30 29 29 28 28 27 25 24 23 22 21 20 21 21
26 26 27 28 28 28 28 28 28 27 26 25 25 25 27 29 30 30 28 27 28 29 30 29 27 25 22 22 24 27 29 31 33 34 35 36 38 38 38 35 33 32 32 29 26 24 24 24 23 23 24 24 23 21 21 22 25 26 26 26 26 22 18 24 29 31 31 31 31 32 32 31 30 30 30 29 28 27 25 23 22 21 20 19 19 20
26 27 27 27 28 28 28 27 27 26 24 23 23 24 26 28 29 28 26 25 25 26 27 26 25 23 21 19 20 22 26 28 30 32 34 36 38 38 38 36 34 33 32 29 26 24 23 22 21 22 23 24 24 23 22 23 24 25 26 27 27 24 21 24 30 32 31 30 31 32 33 32 31 30 30 29 28 26 25 23 22 20 19 18 18 19
26 26 27 27 27 26 25 25 25 25 24 23 23 24 25 27 28 27 26 24 24 24 25 25 23 19 17 17 17 19 22 25 28 31 33 35 37 38 37 35 34 33 32 30 29 27 24 22 20 21 22 23 23 23 23 23 24 25 26 27 27 26 28 30 33 34 32 31 32 33 33 33 32 31 30 29 28 27 25 24 23 21 20 18 18 18
25 25 26 26 26 26 25 24 24 23 23 22 22 24 25 27 27 26 25 24 23 23 23 24 22 18 14 14 16 17 18 20 23 27 30 32 34 36 35 34 33 32 31 30 29 29 28 26 24 23 22 21 21 21 23 24 25 25 25 27 26 24 25 28 31 33 34 33 33 33 34 33 32 31 30 29 29 27 26 24 23 22 21 19 19 18
25 24 24 25 26 26 25 25 24 23 22 21 21 23 25 26 26 26 25 24 23 23 22 22 21 19 16 16 16 17 16 17 18 21 25 27 29 31 31 30 30 29 29 28 26 26 26 27 27 26 24 21 18 18 21 25 26 25 26 26 25 24 24 26 30 33 34 34 34 35 35 34 32 30 29 29 28 27 26 24 23 22 21 20 19 19
23 23 23 25 26 26 25 25 24 22 21 21 22 23 25 26 26 25 23 23 23 22 22 20 19 17 15 16 18 19 19 18 18 19 21 24 26 27 27 26 25 25 24 23 22 22 22 23 25 26 27 23 19 18 20 23 26 27 27 28 27 25 25 27 31 33 33 34 35 36 36 35 32 30 29 28 27 26 26 25 25 24 22 21 20 19
23 22 23 23 23 22 23 23 23 22 21 22 23 23 24 25 25 25 23 22 22 21 21 20 18 16 14 15 17 18 19 19 19 19 21 23 24 25 25 24 24 22 21 20 19 19 20 21 22 24 25 24 23 22 22 23 25 27 28 28 28 27 25 27 30 32 33 33 35 36 37 35 34 32 30 27 25 25 26 27 27 26 24 23 21 20
24 24 24 23 23 22 22 22 22 21 21 21 21 21 22 23 24 24 23 22 21 21 20 20 19 17 14 15 16 18 18 18 18 19 20 22 24 25 25 25 25 23 21 19 17 17 17 17 18 20 22 22 23 23 24 24 25 26 26 27 27 27 26 27 30 32 33 34 35 36 36 34 32 31 30 27 24 24 25 27 28 27 26 24 22 21
25 25 25 24 24 23 22 22 22 21 21 22 22 21 21 21 22 22 21 21 20 20 20 20 20 18 16 16 17 18 19 19 19 18 19 22 24 25 25 26 26 23 19 15 12 11 10 9 8 9 13 18 21 24 26 27 26 25 23 24 25 26 26 27 29 32 33 34 35 36 35 32 30 29 28 26 24 22 22 24 27 28 28 26 24 23
Wind_Direction
266 268 269 267 266 267 270 275 275 273 270 268 265 262 259 256 253 250 247 243 236 226 217 213 213 218 223 227 228 229 229 231 234 237 240 241 242 243 244 247 250 252 253 253 252 251 250 249 249 249 249 249 249 249 250 250 246 241 236 237 241 245 249 252 252 250 246 243 242 241 237 231 225 220 214 208 204 201 201 203 207 209 208 208 207 207
268 266 262 260 260 261 266 272 274 272 269 266 264 262 258 255 251 247 242 236 228 220 215 213 216 222 228 233 236 237 238 238 239 240 241 241 241 242 245 247 250 252 253 253 253 252 251 250 249 248 247 245 245 245 245 244 241 238 237 242 249 254 257 257 255 252 247 242 239 235 231 224 219 214 210 205 203 203 204 205 207 208 208 206 205 202
265 260 257 256 256 257 262 269 273 273 269 266 263 260 256 252 247 241 235 228 223 219 216 218 222 227 234 239 242 244 244 243 243 242 241 241 242 244 246 248 250 252 252 252 252 251 250 248 245 243 242 241 240 239 239 237 235 235 239 246 253 257 258 256 252 247 241 236 233 229 225 218 213 210 207 203 202 202 202 204 205 205 205 203 200 195
270 264 261 262 261 261 263 268 271 271 268 263 259 256 252 247 242 236 231 225 222 220 221 223 228 234 240 245 248 249 248 247 246 244 244 245 246 248 249 249 250 250 250 249 248 247 246 244 242 239 239 239 237 235 234 232 232 234 240 248 253 255 254 251 245 238 232 228 225 224 222 215 209 206 204 201 199 198 199 200 200 200 200 199 196 193
278 274 272 269 266 265 268 270 270 268 265 260 255 251 247 243 239 235 232 229 227 227 229 231 236 241 246 250 253 253 252 250 249 248 248 249 250 250 251 250 249 248 247 246 244 242 241 240 239 237 237 237 236 233 231 230 230 234 241 246 249 249 247 242 235 229 224 221 220 220 219 213 207 203 201 198 196 194 195 196 196 196 195 195 195 194
279 278 276 271 266 266 270 271 269 266 262 257 253 249 245 242 240 237 236 235 236 238 239 241 244 247 251 254 256 256 254 252 250 250 250 250 250 250 250 250 250 248 246 243 240 238 237 236 236 236 236 236 234 232 230 229 231 235 240 242 242 239 236 231 226 222 219 217 216 215 215 210 204 200 197 195 193 193 193 193 193 194 194 194 195 195
275 275 274 271 269 269 270 269 267 263 258 254 251 249 247 244 242 241 241 242 243 245 247 248 249 251 253 255 255 255 253 251 250 250 250 249 247 246 246 248 249 249 247 243 239 235 233 233 234 235 234 234 232 231 229 230 232 235 238 236 231 227 224 221 219 218 216 214 213 211 210 206 201 197 195 194 193 193 193 193 193 193 193 194 195 195
273 272 270 269 269 269 267 264 261 258 253 250 248 247 246 245 244 244 244 245 246 248 250 251 253 254 254 254 254 252 250 249 248 248 248 247 245 243 243 244 247 248 248 245 239 234 231 231 232 233 233 232 231 230 229 230 232 235 234 228 221 215 213 213 213 214 213 211 208 205 203 199 196 194 193 193 193 193 192 192 192 192 193 195 197 195
269 269 267 264 264 264 263 261 258 255 250 246 243 242 243 244 245 246 246 247 248 249 250 252 254 255 256 255 254 252 250 248 248 248 247 246 244 242 241 243 244 246 246 243 239 234 230 229 230 231 232 231 230 229 229 230 232 232 229 221 212 208 208 209 210 209 209 206 202 198 194 191 190 189 190 190 190 190 189 189 190 192 195 198 198 194
263 262 263 261 259 257 257 258 259 256 251 246 242 240 240 240 242 245 247 248 250 251 251 252 254 255 257 257 256 254 252 251 250 249 248 247 245 242 241 242 243 243 241 239 236 232 229 228 229 230 231 231 230 229 228 228 229 229 224 215 207 205 206 208 209 208 206 203 198 193 188 186 185 185 186 186 186 186 187 188 191 194 198 199 198 194
262 260 259 259 257 255 253 253 255 255 252 246 242 240 239 238 237 239 242 246 250 252 254 254 255 255 255 257 257 257 256 256 255 253 252 250 247 244 242 242 242 240 236 234 232 231 229 228 229 230 231 231 230 228 227 227 227 226 221 212 205 204 206 208 209 209 208 205 200 195 191 189 187 187 187 187 187 188 189 191 193 196 199 199 196 193
267 264 259 257 257 255 249 246 247 249 246 240 238 239 240 238 236 235 237 242 247 250 253 256 257 257 255 255 257 258 259 259 259 258 256 254 251 247 244 242 241 238 233 230 230 230 231 230 230 230 230 230 229 227 225 225 225 223 218 211 206 204 206 208 210 210 211 210 207 203 200 198 197 196 195 194 195 195 196 198 199 200 201 199 195 193
267 267 264 258 253 247 239 233 232 232 231 229 230 234 239 239 237 236 238 242 246 248 250 253 256 258 258 257 256 256 257 258 259 260 259 257 254 250 247 244 242 238 233 228 227 228 230 230 231 232 231 230 228 226 224 223 223 221 217 212 208 206 206 208 210 211 212 212 210 208 207 206 206 205 204 204 203 204 205 205 207 208 209 205 199 194
265 266 266 263 256 247 235 224 217 217 223 226 231 235 239 241 239 237 237 241 244 246 247 249 252 256 258 257 255 254 253 254 255 256 256 255 254 251 248 247 245 242 236 230 226 226 227 228 229 231 231 229 227 224 222 221 221 219 216 212 209 208 208 210 211 211 212 212 212 210 209 210 210 210 210 209 209 210 211 212 213 215 215 210 203 198
261 263 263 261 258 254 245 230 224 225 229 231 234 237 239 241 238 234 233 237 241 244 244 246 250 254 257 257 255 253 250 248 247 248 249 251 251 251 249 247 247 246 242 235 230 227 226 225 226 227 228 226 223 220 218 218 218 217 215 212 210 209 209 211 212 212 212 212 212 210 209 210 212 213 213 213 213 213 213 213 214 214 212 209 204 200
257 257 256 256 257 256 252 242 235 234 234 234 233 233 233 235 234 232 231 234 237 238 236 240 248 255 258 258 256 252 245 241 239 240 242 246 248 249 248 246 245 246 245 240 235 230 226 225 225 225 225 222 219 216 215 215 215 214 213 212 210 210 210 211 212 213 212 212 212 212 211 211 213 213 214 213 213 213 212 211 209 207 207 206 205 204
253 251 250 252 254 254 251 246 242 241 239 236 232 230 229 230 231 232 232 233 233 233 233 235 240 254 257 257 254 247 238 232 232 235 238 242 246 247 247 244 242 242 243 241 237 232 227 224 223 223 222 219 215 213 213 213 213 212 212 211 210 210 210 211 212 213 213 213 214 214 213 212 212 212 211 210 210 209 208 206 204 203 204 206 208 212
254 248 246 248 251 251 250 245 241 240 238 234 231 230 230 230 231 231 231 231 232 234 236 235 234 237 247 251 251 242 228 223 225 229 235 240 244 246 246 243 241 240 240 238 235 231 227 223 222 221 219 216 213 211 211 211 211 211 210 210 209 209 209 210 212 213 213 214 214 215 214 213 211 209 208 207 206 206 205 203 202 203 206 210 215 221
264 256 251 250 251 251 248 242 236 232 230 227 226 225 225 227 229 229 230 232 233 235 236 236 239 241 244 247 249 244 227 218 219 224 232 238 242 244 244 242 239 237 236 234 232 229 225 223 222 220 217 214 211 210 210 210 209 209 209 208 208 208 209 210 211 212 213 214 214 214 213 211 209 207 206 205 204 204 203 203 204 207 212 217 224 231
272 266 260 257 258 257 251 243 235 229 225 224 223 221 221 222 224 227 228 231 233 235 236 237 238 239 241 243 244 242 232 222 217 220 228 236 240 241 241 237 233 231 231 230 228 226 222 220 219 217 215 212 210 209 208 208 208 207 207 207 207 207 208 209 211 212 212 213 213 212 211 209 208 206 205 205 204 204 205 206 210 214 221 227 233 238
275 270 265 262 262 261 257 250 242 235 231 226 222 220 220 220 222 224 226 227 229 231 232 232 234 237 238 238 238 237 234 225 216 217 226 235 239 238 237 233 228 225 224 224 223 221 218 216 214 212 210 209 208 208 207 206 206 206 206 206 206 206 207 209 210 211 211 211 210 210 208 207 207 206 206 206 207 208 210 214 219 224 230 236 239 240
273 271 269 265 261 260 260 260 256 250 244 233 223 218 220 218 219 222 223 224 225 225 226 230 234 236 236 236 236 236 235 230 222 218 224 235 238 235 232 228 223 219 217 218 217 215 212 210 209 208 207 206 206 206 205 205 205 205 205 205 205 205 206 208 209 209 209 208 208 207 207 207 207 208 209 210 212 215 218 223 228 233 236 238 237 234
270 273 275 272 268 264 263 263 260 255 247 236 227 222 222 219 219 221 222 223 224 225 226 229 232 234 234 233 233 233 233 232 228 223 221 230 236 233 228 223 216 213 213 213 211 208 205 204 203 204 204 204 204 204 203 203 203 203 204 204 204 204 205 206 207 207 207 207 207 207 208 209 210 211 214 216 219 222 225 228 231 233 233 231 226 221
266 270 273 275 275 273 270 265 259 251 242 233 227 224 224 225 227 230 231 229 228 228 228 228 228 229 229 227 226 227 228 230 227 223 220 228 234 230 223 217 211 208 210 210 207 203 199 198 198 199 199 200 201 201 201 201 201 202 202 203 203 203 204 204 205 205 205 206 207 208 209 211 213 215 217 219 221 223 224 226 225 224 221 216 211 206
263 265 268 270 273 275 275 271 262 250 239 230 226 225 226 228 230 232 233 232 229 225 221 218 217 219 220 219 219 220 223 225 224 219 216 226 230 225 219 214 208 205 206 206 203 199 195 194 194 194 194 195 196 198 198 199 199 200 201 201 201 202 202 203 204 204 205 206 207 208 209 210 211 212 214 215 216 217 218 217 214 210 205 200 196 193
264 264 266 267 269 271 273 273 269 260 248 239 234 233 231 229 228 227 225 223 219 214 208 205 208 213 213 211 212 215 218 220 220 219 216 220 220 212 211 211 206 202 201 200 198 194 191 190 190 189 189 190 192 194 195 196 197 198 199 200 200 200 201 202 202 203 203 203 203 204 204 205 205 206 207 208 209 208 207 205 202 196 191 188 186 185
267 267 268 269 269 269 269 270 270 267 261 253 247 241 236 229 224 221 219 216 211 206 204 204 209 212 208 206 210 214 215 215 216 217 218 217 213 204 202 203 201 197 193 192 192 191 188 187 187 186 185 186 188 190 193 194 196 197 198 198 198 198 199 199 200 199 198 197 197 197 198 198 199 200 201 202 201 200 198 195 190 185 183 182 181 179
271 271 271 271 270 270 270 269 269 268 266 262 254 245 235 225 219 216 216 213 209 206 208 207 206 204 202 206 210 211 212 213 214 216 217 214 213 206 198 196 195 191 185 181 183 185 186 186 185 184 183 184 185 187 190 192 194 195 195 196 196 196 196 196 195 193 192 191 192 192 193 193 194 195 196 196 196 194 191 186 183 181 182 180 178 176
273 273 273 272 272 272 271 270 270 269 268 265 258 249 238 228 221 217 216 211 207 207 212 214 213 211 208 204 202 203 207 211 214 216 214 211 210 207 196 190 188 185 177 167 167 175 183 185 184 182 181 182 183 184 186 189 191 191 192 192 193 193 193 192 191 189 188 188 189 189 190 190 190 191 192 192 191 188 184 181 181 181 181 179 177 176
280 278 276 275 274 273 272 271 271 269 268 266 261 253 243 235 227 220 216 210 205 207 215 216 215 212 205 190 184 193 205 212 214 214 210 206 206 200 189 184 183 180 174 163 152 160 186 187 184 181 179 179 180 181 182 184 185 185 185 186 188 189 190 189 189 188 188 187 188 188 188 187 187 188 188 189 187 184 181 181 182 182 181 179 177 176
290 287 283 280 278 276 274 272 271 270 269 268 263 255 245 237 230 222 216 210 207 209 213 214 213 208 198 178 154 180 208 212 213 211 207 204 203 196 185 180 181 182 180 175 165 118 186 191 188 183 178 177 178 179 180 181 181 181 181 181 182 184 187 188 188 188 188 187 187 186 185 184 184 184 185 185 183 181 181 183 184 183 181 179 177 176
289 287 285 283 282 280 277 274 272 270 270 268 264 256 246 238 232 225 217 213 211 211 211 212 211 207 202 199 198 199 203 206 209 209 205 203 201 195 188 183 182 184 186 185 184 179 166 174 188 185 178 176 176 178 180 181 181 180 180 179 179 181 184 186 186 186 186 185 185 184 182 181 181 182 183 182 181 180 182 185 186 185 182 180 178 176
284 283 282 281 281 279 276 274 272 270 268 266 263 257 249 242 235 229 221 217 215 215 213 211 209 208 207 208 210 210 207 206 208 208 204 200 196 190 187 184 182 184 187 189 190 188 173 163 173 179 180 178 177 178 179 181 181 181 180 179 178 179 180 182 182 182 181 181 181 180 180 180 180 181 182 181 179 180 183 187 188 187 185 182 180 177
280 279 278 278 276 275 272 271 270 268 265 263 261 259 254 249 241 234 226 220 218 218 217 214 210 207 206 208 211 212 210 209 210 208 203 198 193 188 184 182 181 182 184 188 190 184 166 161 164 170 177 180 180 178 179 180 182 183 183 181 179 177 178 179 179 179 178 178 178 178 179 180 180 181 182 181 180 181 184 188 190 189 188 186 183 180
275 274 273 273 272 270 269 268 267 265 263 261 259 258 257 254 248 239 230 222 219 219 219 218 215 211 207 205 206 208 208 209 209 207 202 197 195 190 184 183 183 182 182 185 184 172 151 157 163 167 168 176 180 181 180 181 182 183 184 184 182 179 178 178 179 178 178 177 177 178 178 179 179 180 180 180 180 181 184 188 190 191 191 190 188 185
271 269 269 269 268 267 266 265 264 263 262 261 259 258 256 254 250 243 234 224 219 218 219 219 218 216 214 210 209 208 209 210 209 205 201 199 198 194 188 187 186 185 183 185 185 179 165 161 165 167 166 169 177 184 183 182 182 182 183 184 183 181 180 180 180 179 178 177 177 178 178 178 179 179 180 180 179 180 183 186 188 190 191 191 191 190
272 271 269 268 266 265 264 263 262 261 260 260 258 257 254 251 247 241 235 228 223 220 217 217 218 217 217 217 216 216 216 215 211 206 202 202 201 198 193 191 191 189 186 185 185 182 173 164 164 169 172 174 176 180 183 182 181 181 183 183 183 181 181 181 182 181 179 178 178 178 178 178 179 179 179 179 178 179 182 184 186 187 189 191 192 193
268 269 269 267 264 262 262 261 259 259 258 258 257 254 252 248 243 238 234 230 227 223 217 216 216 217 218 219 220 221 222 220 215 209 204 203 203 201 197 194 193 194 193 190 186 182 175 168 164 169 179 184 182 178 178 178 179 180 182 184 183 182 182 182 183 183 181 180 179 178 178 178 179 179 179 178 177 178 181 183 184 185 185 189 191 193
261 264 265 264 261 259 258 258 257 257 256 256 257 256 252 247 241 237 234 231 228 224 220 217 216 217 219 221 222 222 222 221 217 213 208 205 204 202 200 196 194 195 197 195 191 186 182 179 179 180 181 183 181 178 177 178 179 179 180 181 182 184 184 184 184 184 183 181 179 178 178 179 180 181 180 179 179 179 180 181 182 183 183 185 188 191
263 264 264 263 261 258 256 255 255 255 254 255 256 255 250 244 239 236 233 231 229 226 223 222 221 221 222 223 223 222 220 219 218 214 211 208 206 204 202 199 197 196 196 195 193 190 188 188 186 183 180 179 177 176 177 179 180 178 175 175 180 184 185 185 185 185 185 183 180 178 179 180 182 182 182 181 182 182 182 182 182 182 184 184 185 186
266 265 265 264 263 260 257 255 254 253 253 254 255 252 246 239 234 230 229 228 226 225 224 223 223 222 222 223 222 220 218 217 216 214 212 210 208 206 204 201 200 198 195 193 192 192 191 191 188 183 180 178 176 174 176 180 180 178 175 176 180 183 184 184 184 185 185 184 182 181 180 181 183 184 184 184 185 185 185 184 183 183 185 186 187 186
265 264 264 263 263 262 261 260 257 255 252 251 248 245 240 234 229 225 222 220 219 218 217 216 215 212 211 212 214 215 215 214 214 213 212 211 209 207 204 202 200 199 195 192 191 192 193 193 189 185 181 178 175 174 177 179 180 181 180 180 179 177 179 182 184 184 183 183 183 182 181 182 183 184 185 185 186 187 187 187 187 186 187 188 190 191
263 262 262 262 262 262 262 262 260 257 253 249 246 242 238 233 227 222 218 214 211 210 209 208 205 201 197 197 200 203 205 208 209 210 210 210 209 206 203 201 200 199 196 191 189 191 193 193 191 189 186 180 176 173 173 176 179 182 183 181 176 171 172 180 183 183 183 183 183 183 183 183 183 185 186 186 186 186 187 188 189 190 191 191 191 192
260 261 261 262 262 262 261 260 258 255 251 246 244 242 240 234 227 221 215 210 207 205 203 201 198 195 192 189 188 189 192 197 200 203 205 206 206 204 202 200 200 199 197 191 188 188 190 191 192 191 187 182 178 175 174 175 178 181 183 181 178 175 176 179 179 179 180 182 183 184 184 184 184 185 185 185 185 185 186 188 190 192 194 194 193 192
257 259 260 260 260 260 258 256 254 252 249 245 243 242 240 234 228 220 213 208 204 201 199 195 191 187 188 186 184 182 183 186 189 193 197 200 202 202 201 199 199 198 197 194 191 189 188 187 188 187 185 181 178 177 176 175 177 179 181 182 181 182 182 179 178 177 178 179 181 183 184 184 183 183 182 183 184 185 186 188 190 191 192 193 192 191
257 257 257 258 258 258 256 254 251 249 247 243 241 240 238 233 227 220 212 206 201 197 195 192 188 186 185 183 180 178 176 178 181 185 188 192 195 197 198 198 198 197 195 194 194 193 192 189 186 182 177 176 177 179 179 177 176 177 179 180 180 179 179 178 178 178 179 179 180 181 183 183 182 180 179 179 181 183 186 188 191 192 191 191 190 189
258 256 255 256 257 256 254 252 249 247 244 241 239 237 235 230 224 217 211 205 199 194 191 189 189 188 185 180 176 174 173 173 174 177 181 184 188 190 192 193 194 194 193 191 192 193 194 193 189 183 176 171 172 176 179 178 177 176 176 177 176 175 174 176 178 180 180 179 179 180 181 181 179 178 177 177 179 181 184 188 191 192 192 191 190 188
256 255 255 255 255 254 251 248 246 243 241 239 238 235 231 226 220 214 209 204 197 191 187 186 187 187 182 177 176 175 173 172 171 171 173 176 179 182 183 183 183 184 184 184 185 186 187 188 186 183 180 176 173 172 174 176 177 177 177 176 175 174 174 176 178 180 180 180 180 180 180 179 177 176 175 174 175 179 183 187 190 191 192 192 191 189
256 255 255 255 253 251 248 245 242 239 237 237 236 232 228 224 218 212 207 201 194 188 185 185 185 183 176 172 171 172 172 170 169 168 167 168 170 171 171 171 170 168 167 168 169 171 173 175 178 181 182 182 179 175 172 174 175 176 176 175 175 175 174 176 177 178 179 180 181 181 181 180 180 179 176 172 173 177 182 186 189 189 190 191 191 190
255 255 254 253 252 251 248 245 241 237 233 232 230 227 223 219 214 209 204 197 191 187 185 184 183 180 174 169 168 168 168 167 166 165 165 165 164 163 161 160 158 154 149 147 148 151 154 159 168 176 181 184 183 178 173 171 172 173 173 175 176 176 174 174 175 177 178 179 180 180 181 181 181 180 177 174 173 176 181 185 187 188 188 189 190 191
254 253 252 251 250 249 247 245 241 236 232 230 228 224 218 213 210 206 201 194 189 186 184 184 182 179 174 169 168 168 168 166 165 164 165 164 163 161 159 158 155 150 142 138 135 135 135 137 146 165 178 183 185 183 178 172 169 168 169 173 176 176 174 173 174 176 178 178 179 179 179 179 179 179 178 175 172 173 178 184 187 187 187 188 189 191
Height
745 745 745 745 745 744 743 743 744 743 743 743 743 743 743 743 743 743 743 743 743 744 745 746 748 748 749 750 750 750 750 750 751 752 752 753 754 754 755 756 756 756 757 757 757 758 758 758 759 760 760 761 762 763 763 764 765 766 767 768 769 770 771 772 772 773 774 775 776 776 777 778 778 778 779 779 780 781 782 783 783 784 785 786 787 788
743 743 743 743 743 743 742 742 743 743 742 742 742 742 742 741 741 741 742 742 742 743 743 745 746 747 747 748 748 748 748 749 749 749 750 751 752 753 753 754 754 755 755 756 756 756 756 757 758 758 758 759 760 761 762 763 763 764 766 767 768 768 769 769 770 771 772 773 774 775 776 776 777 777 778 778 779 780 781 782 783 783 784 785 786 787
742 742 741 741 742 741 741 741 741 742 742 741 741 741 741 740 740 740 740 741 741 742 743 743 744 745 745 746 746 747 747 747 747 747 748 749 750 751 751 752 753 753 753 754 754 755 755 755 756 756 757 758 758 759 760 761 762 763 764 765 765 766 767 768 768 769 770 771 773 773 774 775 775 776 776 777 778 779 780 781 782 783 783 784 785 786
741 740 740 740 740 740 740 740 740 741 741 741 740 740 740 740 739 739 739 740 740 741 741 742 742 743 743 744 744 744 745 745 745 745 746 747 748 748 749 750 751 751 752 753 753 753 753 754 754 755 755 756 757 758 758 759 760 761 762 763 763 764 765 766 767 768 769 770 771 772 773 773 774 774 775 776 777 778 779 780 781 782 783 783 784 785
739 739 738 739 739 738 738 739 739 739 739 739 739 739 739 738 738 738 739 739 739 740 740 740 741 741 741 742 742 743 743 743 743 743 744 745 746 747 747 748 748 749 750 751 751 752 752 752 753 753 754 755 756 756 757 758 758 759 760 761 762 762 763 764 765 766 767 768 769 771 771 772 773 773 774 775 776 777 778 779 780 781 782 783 783 784
738 738 738 738 737 737 737 738 738 738 738 738 738 738 738 738 737 738 738 738 738 738 738 738 739 739 739 740 740 740 741 741 741 742 742 743 744 744 745 746 747 747 748 749 749 750 750 751 751 752 753 753 754 755 756 756 757 758 759 759 760 761 762 763 763 764 766 767 768 769 770 771 772 772 773 774 775 776 777 778 779 780 781 782 783 784
737 737 737 736 736 736 736 736 736 736 737 736 736 736 736 736 736 736 736 736 736 736 737 737 737 737 737 738 738 738 739 739 740 740 741 741 742 743 743 744 745 745 746 747 748 748 749 749 750 751 751 752 753 753 754 755 756 757 757 758 758 759 760 761 762 763 764 765 766 768 768 770 770 771 772 773 774 775 776 777 778 779 780 781 782 783
735 734 735 735 734 734 734 734 734 734 734 734 734 734 734 734 734 734 734 734 734 734 734 734 735 735 735 735 736 736 737 737 738 738 739 739 740 741 741 742 743 743 744 745 746 747 747 748 748 749 750 751 751 752 753 753 754 755 756 757 758 758 759 760 761 762 763 764 765 766 767 768 769 770 770 771 773 773 775 776 777 778 779 780 781 782
733 733 733 733 733 733 733 732 732 733 733 733 733 732 732 732 732 732 732 732 732 732 732 732 733 733 733 733 734 734 735 735 736 736 737 738 738 739 739 740 741 742 742 743 744 745 745 746 747 748 748 749 750 751 751 752 753 754 754 755 756 757 758 759 760 761 762 763 764 765 766 766 767 768 769 770 771 773 774 775 776 778 778 780 781 782
732 731 730 730 730 731 731 730 730 731 731 731 731 730 730 730 730 730 730 729 729 729 730 730 730 730 731 731 732 733 733 733 734 734 735 735 736 737 737 738 739 740 740 741 742 743 743 744 745 746 747 748 748 749 750 751 752 753 753 754 755 756 757 758 759 760 761 762 763 764 764 765 766 767 768 769 770 772 773 774 776 777 778 779 780 781
729 728 728 728 728 728 728 728 728 729 729 729 729 728 728 728 728 728 728 727 727 727 727 728 728 728 729 729 730 731 731 732 732 733 733 733 734 735 735 736 737 738 739 739 740 741 742 742 743 744 745 746 747 747 748 749 750 751 752 753 754 755 756 757 758 759 760 761 762 763 764 765 766 767 768 768 770 771 772 773 775 776 777 778 779 780
728 727 726 726 725 725 725 725 726 727 727 728 728 727 726 725 726 726 726 725 725 725 725 725 726 726 727 727 728 729 729 730 730 731 731 732 732 733 733 734 735 736 737 738 738 739 739 740 741 742 743 744 745 745 746 747 748 749 751 752 753 753 755 756 757 758 759 760 761 762 763 764 765 766 767 768 769 770 771 773 773 775 776 777 778 779
726 726 725 724 723 723 722 722 723 724 724 725 725 724 723 723 724 724 724 723 723 724 724 724 723 724 724 725 726 727 728 728 728 729 729 730 730 730 731 732 733 733 735 736 736 737 738 738 739 740 741 742 743 743 744 745 747 748 749 750 751 752 753 754 755 757 758 759 760 761 762 763 764 765 766 767 768 769 770 771 772 773 774 776 777 778
724 724 724 723 722 720 720 720 720 720 721 721 722 722 722 722 722 723 723 722 722 722 723 723 722 722 722 723 724 725 726 727 727 727 727 727 728 728 729 729 730 731 732 733 734 734 735 737 738 738 739 740 741 742 743 743 745 746 747 748 749 751 752 753 754 755 756 757 758 759 760 761 762 763 765 766 767 768 769 770 771 772 773 775 776 777
722 722 722 721 720 719 718 718 717 717 717 718 719 720 720 721 721 721 721 720 720 721 721 721 721 720 720 720 721 723 724 725 725 725 725 725 725 726 727 728 728 729 730 731 731 732 733 734 735 736 737 738 738 739 740 742 743 744 746 747 748 749 750 752 753 754 755 756 757 758 759 760 761 762 763 764 765 767 768 769 770 771 772 774 775 776
719 719 719 718 717 716 716 716 716 715 715 715 717 718 718 718 718 718 719 718 719 719 720 720 720 719 718 718 719 720 722 723 723 723 723 723 723 724 725 726 726 727 727 728 729 730 731 732 733 733 734 735 736 737 738 739 741 743 744 745 746 748 749 750 751 752 753 754 756 757 758 759 760 761 762 763 764 765 766 768 769 770 771 773 774 775
715 715 715 714 713 713 713 713 713 713 713 714 714 715 715 715 716 716 717 717 717 718 718 718 718 718 716 716 716 717 718 720 720 721 721 720 720 721 722 723 724 724 725 725 726 727 728 729 730 731 732 733 734 735 736 738 739 741 742 743 745 746 747 748 750 751 752 753 754 755 757 757 758 759 761 762 763 764 765 766 768 769 770 771 773 773
713 712 711 710 709 708 709 709 710 710 711 711 712 712 712 713 713 714 714 715 715 715 715 716 716 715 715 714 714 715 716 717 718 718 719 718 718 718 720 721 722 722 723 723 724 725 726 726 727 728 729 730 732 733 734 736 738 739 740 742 743 744 746 747 748 749 751 752 753 754 755 756 757 758 759 761 762 763 764 765 766 768 769 770 771 772
710 709 708 708 706 706 706 705 705 706 707 708 709 709 710 710 711 711 712 712 713 713 713 713 713 713 713 712 712 713 714 715 716 717 717 716 716 716 717 718 720 720 720 721 721 723 723 724 725 726 727 728 730 731 733 734 736 737 738 740 741 743 744 745 747 748 749 751 752 753 754 755 756 758 758 760 761 762 763 764 765 767 768 769 770 771
708 707 706 706 705 704 703 703 702 703 703 704 705 707 707 707 708 708 708 709 710 710 711 711 710 710 710 710 711 712 713 714 714 715 715 714 714 714 715 716 717 718 718 718 719 720 721 722 723 724 725 727 728 729 731 732 734 735 737 738 740 741 743 744 745 747 748 749 751 752 753 754 755 756 758 758 760 761 762 763 764 765 766 767 768 769
707 705 704 705 705 703 702 701 701 700 700 702 703 703 703 704 705 705 705 706 707 707 708 708 707 707 708 709 709 710 711 712 713 713 713 713 712 712 713 714 715 716 716 716 717 718 719 720 721 722 723 725 726 728 729 730 732 733 735 737 738 740 741 743 744 745 747 748 749 751 752 753 754 755 756 757 758 759 761 762 763 764 765 766 767 768
706 703 702 703 703 701 699 699 699 699 699 699 700 700 700 701 701 701 702 703 704 704 704 704 703 704 705 706 707 708 708 709 710 711 711 711 710 709 710 712 713 713 714 714 715 716 717 718 719 720 721 723 724 726 727 728 730 732 733 735 736 738 739 741 743 744 745 747 748 749 751 752 753 754 755 756 757 758 759 760 761 762 763 764 765 766
705 702 700 700 699 698 697 697 697 697 696 696 695 694 695 696 697 697 698 699 700 699 699 699 700 701 703 703 704 705 706 707 708 708 709 709 708 707 708 710 711 712 712 712 713 714 715 716 717 718 720 721 723 724 725 727 728 730 731 733 735 736 738 739 741 743 744 745 747 748 749 750 752 753 753 755 756 757 758 759 760 761 762 763 763 764
702 700 699 698 697 696 695 695 694 693 692 691 690 689 690 691 692 693 694 695 695 696 696 697 698 699 700 700 701 702 703 704 705 707 707 707 706 705 706 708 709 710 710 710 711 712 713 715 716 717 718 720 721 722 723 725 726 728 730 731 733 735 736 738 740 741 743 744 745 747 748 749 750 751 752 753 754 755 756 757 758 759 760 761 762 763
698 697 697 696 695 694 693 693 692 690 689 687 686 686 687 688 689 690 691 692 693 693 694 695 696 696 696 698 698 699 700 701 703 704 705 704 704 704 704 706 707 708 709 709 710 711 712 713 714 716 717 718 720 721 722 723 725 726 728 730 732 733 735 737 738 740 741 743 744 745 747 748 749 750 751 752 753 754 755 756 757 758 759 760 761 762
695 694 693 693 692 692 692 691 690 689 688 687 685 685 686 687 688 688 689 689 690 691 692 692 693 693 693 695 696 696 697 699 700 701 702 703 703 702 703 704 705 707 708 708 709 710 711 712 713 714 716 717 718 720 721 722 723 725 726 728 730 732 733 735 737 738 740 741 743 744 745 747 748 748 749 750 752 753 753 755 756 757 758 759 760 761
692 691 690 689 689 689 688 688 688 688 687 686 684 683 684 685 685 686 685 686 687 688 689 689 689 689 691 692 693 693 694 696 697 698 699 701 701 701 701 702 704 705 706 707 708 709 710 711 712 713 714 716 717 718 720 721 722 723 725 727 728 730 732 733 735 737 738 740 742 743 744 745 746 748 748 749 750 751 753 753 755 756 757 758 759 760
689 688 687 686 686 685 685 685 684 684 684 683 683 681 681 682 682 681 680 682 684 686 685 685 685 687 688 688 689 690 692 693 694 696 697 699 699 699 699 700 702 703 705 706 708 709 710 711 711 712 713 714 716 717 719 720 721 723 724 726 727 729 731 732 734 736 737 739 740 742 743 744 745 746 747 748 749 750 751 753 754 755 756 757 758 759
686 685 684 683 683 682 682 681 681 680 680 680 680 679 678 678 677 676 676 678 681 683 682 682 682 683 684 685 686 688 690 690 691 693 695 697 697 697 697 699 700 702 703 706 708 709 710 710 711 712 713 713 714 716 718 719 721 722 723 725 726 728 729 731 733 734 736 738 739 741 742 743 744 745 746 747 748 749 751 752 753 753 754 756 757 758
683 683 681 680 679 679 678 678 677 676 676 676 676 676 675 675 673 672 672 675 677 678 678 679 680 681 681 683 685 687 687 687 688 690 693 694 694 694 696 698 698 699 701 704 707 709 709 709 710 710 712 713 714 715 716 718 719 721 722 724 725 727 728 730 732 733 735 737 738 739 741 742 743 744 745 746 747 748 749 750 751 752 753 755 756 758
682 681 679 678 677 676 675 674 673 673 673 672 672 672 672 671 670 669 669 670 672 673 674 676 677 678 679 680 682 683 683 683 685 687 689 691 692 692 693 695 696 697 698 700 703 706 708 709 709 710 710 712 713 714 715 716 717 718 720 722 724 726 728 729 731 733 734 736 737 738 740 741 742 743 744 745 746 748 748 749 750 751 753 754 756 757
680 678 677 675 674 673 673 671 670 670 669 669 668 668 668 667 666 666 665 665 667 668 670 672 673 674 675 676 676 677 677 679 681 683 686 688 689 690 691 693 694 695 696 697 698 700 703 706 708 709 709 711 712 713 714 715 716 717 718 720 723 724 726 728 730 732 733 735 736 738 739 740 742 743 743 744 746 747 748 748 749 751 752 753 755 756
678 676 674 673 672 671 670 668 668 667 667 666 666 665 664 664 663 662 662 662 663 665 666 668 670 671 672 672 672 672 673 675 677 679 683 685 687 688 689 690 692 693 695 696 697 697 698 701 704 707 708 709 710 712 713 714 715 716 717 719 721 723 725 727 729 730 732 734 735 737 738 740 741 742 743 744 745 746 747 748 748 750 751 752 754 755
674 673 672 671 670 668 667 666 665 664 664 663 663 663 662 661 660 660 659 659 659 661 662 664 665 667 668 669 670 670 671 672 674 676 679 682 683 684 686 688 689 691 693 695 696 696 697 698 701 704 707 709 710 711 712 713 714 715 716 718 719 721 723 725 727 729 730 732 734 736 738 739 740 741 742 743 744 745 746 747 748 749 750 752 753 754
671 670 669 668 667 666 664 663 663 662 661 660 660 660 660 659 658 658 657 656 656 657 658 660 661 663 664 666 667 668 668 670 671 673 676 678 680 681 683 685 686 688 691 693 694 695 696 698 699 701 704 708 709 710 711 712 713 714 716 717 718 720 721 723 725 727 729 731 733 734 736 737 739 740 741 743 743 744 745 746 747 749 750 751 753 754
667 666 665 664 664 663 662 661 660 659 658 658 657 657 657 657 657 656 655 654 654 654 655 656 658 659 660 661 662 663 665 667 669 671 673 675 676 678 681 682 683 685 688 690 692 693 695 697 698 699 702 705 707 709 710 711 712 714 715 717 718 719 720 722 723 725 727 729 731 733 734 736 737 738 740 741 743 744 745 746 747 748 749 751 752 753
664 663 662 661 661 660 658 657 657 656 655 654 654 654 654 654 654 654 653 653 652 652 652 653 655 656 657 658 659 661 662 664 666 668 670 672 673 675 677 679 680 682 684 686 689 691 693 695 697 699 701 702 703 706 708 709 711 713 714 716 717 718 720 721 723 724 726 727 729 731 733 734 736 738 739 741 742 743 744 745 746 748 749 750 752 753
661 660 659 658 657 656 655 654 653 653 652 652 651 651 651 651 651 651 651 651 650 650 650 651 652 653 655 656 658 659 661 662 663 665 667 669 671 672 674 676 678 680 681 683 685 688 690 693 695 697 699 700 701 702 704 707 709 711 713 714 716 717 719 720 722 723 724 726 728 730 732 733 735 736 738 740 741 742 743 744 746 747 748 749 751 752
657 656 655 654 653 653 652 651 650 649 649 648 648 648 648 648 648 648 649 649 648 648 648 648 649 651 652 654 656 658 658 659 660 662 664 666 668 669 671 673 675 677 679 680 682 684 687 688 690 692 695 697 700 702 703 705 706 708 711 713 715 717 718 719 720 722 723 725 727 729 731 732 734 735 737 738 739 740 741 743 744 745 747 748 749 751
653 652 651 650 650 649 648 647 646 646 646 646 645 645 645 645 645 645 645 646 646 646 646 646 647 648 650 652 653 655 656 656 658 659 661 663 665 667 669 670 672 674 677 679 680 682 684 685 687 688 690 693 696 699 702 703 705 706 708 712 714 715 717 718 719 721 722 724 725 727 729 731 733 734 735 737 738 738 739 740 742 743 744 746 748 749
650 649 648 647 646 646 645 643 643 643 643 643 643 642 642 642 642 642 642 643 643 643 644 645 646 647 648 649 650 652 653 654 655 657 658 660 662 664 666 668 669 671 674 676 678 680 681 683 685 687 688 690 693 696 698 701 703 704 706 708 709 711 713 716 718 719 721 723 724 726 727 729 731 733 734 735 736 737 738 739 740 742 743 744 746 747
648 646 645 644 643 643 642 641 641 640 639 639 639 639 639 639 638 638 639 639 639 640 641 642 643 644 645 646 648 649 650 651 652 653 655 657 659 661 663 665 667 669 671 674 676 678 679 681 683 684 686 688 691 694 696 698 700 702 703 705 707 710 713 715 716 718 719 721 723 725 726 728 729 731 733 734 736 737 738 739 740 741 742 744 745 746
644 643 642 642 641 640 639 639 638 637 637 636 636 636 636 635 635 635 635 635 635 636 637 638 639 641 642 644 645 646 648 649 650 651 653 655 657 658 660 662 664 666 668 671 674 676 678 679 681 682 684 686 688 690 693 696 699 701 702 703 705 708 712 713 714 716 718 719 721 723 725 726 728 730 731 733 734 736 738 739 740 741 742 743 744 746
641 640 639 639 638 638 637 636 635 635 634 633 633 633 633 633 633 632 632 632 633 633 634 636 637 638 640 642 643 644 645 647 648 650 651 653 654 656 658 660 662 663 665 668 671 673 676 678 679 681 683 684 686 688 690 693 696 698 700 702 703 704 705 707 710 713 716 718 720 721 723 725 727 728 731 732 734 735 737 738 739 740 741 743 744 745
638 637 637 636 635 635 634 633 632 632 631 631 630 630 630 630 630 630 629 629 630 631 632 633 634 636 638 639 641 642 643 645 646 648 650 651 653 655 657 658 660 661 663 665 668 670 673 675 677 679 681 683 685 686 688 690 693 695 698 699 701 702 703 704 707 710 713 715 718 719 722 723 725 728 729 731 733 734 735 737 738 739 741 742 743 745
635 634 633 633 632 631 630 630 629 629 629 628 628 628 628 628 628 627 627 627 628 629 629 630 632 634 635 637 639 641 642 643 645 647 648 650 652 654 656 657 658 660 662 664 666 668 669 672 674 677 680 682 683 685 686 688 690 693 695 698 700 702 703 705 707 708 710 712 715 717 719 722 724 726 728 729 731 733 734 736 737 738 740 741 743 744
632 631 630 629 629 628 627 627 626 626 625 625 625 625 625 625 625 625 625 625 625 626 627 629 630 631 632 634 636 639 640 642 644 645 647 649 651 653 655 656 658 660 661 663 665 667 668 670 672 674 677 679 682 683 685 686 688 690 693 695 698 700 702 704 705 707 708 710 713 715 718 720 723 725 726 728 730 731 733 735 736 738 739 741 742 744
629 628 627 626 625 624 624 623 623 623 622 622 622 622 622 622 622 622 623 623 623 624 625 627 628 629 630 632 634 636 638 640 642 644 645 647 649 651 653 655 657 659 661 663 665 667 669 670 672 673 674 676 678 681 683 685 687 688 690 693 695 697 699 701 703 705 708 709 711 713 715 718 720 722 724 726 728 730 732 734 736 737 739 740 742 743
626 625 624 623 622 621 620 620 619 619 619 619 619 619 619 619 619 620 620 621 621 622 623 624 626 627 629 630 632 634 636 638 640 642 644 645 647 649 651 653 656 658 660 662 664 666 668 670 672 673 674 675 676 678 680 683 685 687 689 691 693 695 698 700 702 704 706 708 710 712 714 716 717 719 721 724 727 729 731 733 734 736 738 739 741 743
622 621 621 620 619 618 617 617 616 616 616 616 617 617 617 617 617 618 618 619 619 620 621 622 623 625 627 629 631 633 635 637 639 641 643 644 646 647 649 652 654 657 659 662 664 666 668 670 671 673 674 675 676 677 679 681 684 686 688 690 692 694 696 698 700 703 704 707 709 711 713 716 717 719 721 723 725 727 729 731 733 735 736 738 740 742
619 618 617 616 615 614 614 614 613 613 613 614 614 614 614 615 615 616 616 617 617 618 619 620 621 623 625 627 629 631 633 635 637 639 641 643 644 646 648 649 652 654 658 661 663 666 668 670 672 673 674 675 676 677 678 679 682 685 688 689 691 693 695 697 699 701 703 705 707 710 712 715 717 718 720 722 724 726 728 730 732 733 735 737 739 741